Location: Enborne
(51.3833°N, 1.3667°W)
Time: 12:40:44
(UTC+00:00)

Cosmos 1805 - Pass Details

Date: 18 September 2020
Orbit: 524 x 531 km, 82.5° (Epoch: 22 October)

Event Time Altitude Azimuth Distance (km) Brightness Sun altitude
Exits shadow 20:35:19 82° 153° (SSE) 543 3.1 -21.9°
Maximum altitude 20:35:27 86° 101° (ESE) 540 3.1 -21.9°
Drops below altitude 10° 20:39:24 10° 11° (NNE) 1,795 6.2 -22.4°
Sets 20:41:34 0° 11° (NNE) 2,691 7.1 -22.7°
